AAL341 MMMX-MMGL

Flight info

Callsign AAL341
Flight time 0h 48m
Altitude 30000
Route OVAGO3A OVAGO UT123 IGSON IGSON1B
Aircraft A321/M-SDE3FGHIRWY/LB1

Departure

Time 2026-05-08 14:41
Airport Mexico City Benito Juárez International Airport (MMMX)

Arrival

Time 2026-05-08 15:30
Airport Guadalajara International Airport (MMGL)
Time Latitude Longitude Altitude Speed Heading
2026-05-08 14:09 19.43364 -99.08382 7303 ft 0 kts 329°
2026-05-08 14:33 19.43352 -99.08375 7303 ft 4 kts 327°
2026-05-08 14:34 19.43330 -99.08358 7303 ft 4 kts 318°
2026-05-08 14:34 19.43312 -99.08338 7303 ft 4 kts 300°
2026-05-08 14:34 19.43305 -99.08314 7303 ft 4 kts 250°
2026-05-08 14:34 19.43307 -99.08308 7303 ft 0 kts 239°
2026-05-08 14:36 19.43306 -99.08310 7303 ft 2 kts 239°
2026-05-08 14:37 19.43282 -99.08352 7303 ft 11 kts 239°
2026-05-08 14:37 19.43234 -99.08436 7303 ft 15 kts 239°
2026-05-08 14:37 19.43179 -99.08537 7303 ft 17 kts 239°
2026-05-08 14:37 19.43114 -99.08652 7303 ft 19 kts 239°
2026-05-08 14:38 19.43052 -99.08763 7303 ft 17 kts 240°
2026-05-08 14:38 19.42988 -99.08876 7303 ft 12 kts 239°
2026-05-08 14:38 19.42941 -99.08960 7303 ft 15 kts 239°
2026-05-08 14:38 19.42869 -99.09044 7303 ft 17 kts 214°
2026-05-08 14:39 19.42764 -99.09094 7303 ft 14 kts 190°
2026-05-08 14:39 19.42684 -99.09042 7303 ft 16 kts 119°
2026-05-08 14:39 19.42640 -99.08931 7303 ft 18 kts 112°
2026-05-08 14:39 19.42599 -99.08824 7303 ft 16 kts 112°
2026-05-08 14:40 19.42628 -99.08711 7303 ft 18 kts 58°
2026-05-08 14:40 19.42675 -99.08626 7305 ft 12 kts 59°
2026-05-08 14:40 19.42778 -99.08444 7303 ft 60 kts 59°
2026-05-08 14:40 19.43101 -99.07868 7304 ft 121 kts 59°
2026-05-08 14:41 19.43611 -99.06961 7302 ft 162 kts 59°
2026-05-08 14:41 19.44240 -99.05841 7305 ft 191 kts 59°
2026-05-08 14:41 19.44933 -99.04621 7689 ft 192 kts 58°
2026-05-08 14:41 19.45648 -99.03428 8297 ft 192 kts 58°
2026-05-08 14:42 19.46373 -99.02245 8943 ft 191 kts 57°
2026-05-08 14:42 19.47107 -99.01040 9157 ft 201 kts 57°
2026-05-08 14:42 19.47884 -98.99754 9276 ft 213 kts 58°
2026-05-08 14:42 19.48705 -98.98383 9358 ft 227 kts 58°
2026-05-08 14:43 19.49501 -98.96887 9427 ft 240 kts 72°
2026-05-08 14:43 19.49542 -98.95088 9484 ft 256 kts 109°
2026-05-08 14:43 19.48515 -98.93524 9626 ft 268 kts 146°
2026-05-08 14:43 19.46775 -98.92875 10001 ft 271 kts 181°
2026-05-08 14:44 19.44973 -98.93393 10463 ft 273 kts 214°
2026-05-08 14:44 19.44038 -98.94282 10774 ft 275 kts 229°
2026-05-08 14:44 19.42894 -98.95923 11262 ft 279 kts 237°
2026-05-08 14:44 19.41890 -98.97690 11774 ft 282 kts 240°
2026-05-08 14:45 19.40573 -99.00115 12435 ft 286 kts 239°
2026-05-08 14:45 19.39903 -99.01320 12772 ft 288 kts 239°
2026-05-08 14:45 19.38858 -99.03141 13261 ft 291 kts 238°
2026-05-08 14:45 19.37780 -99.04959 13792 ft 293 kts 238°
2026-05-08 14:46 19.36978 -99.06946 14215 ft 299 kts 258°
2026-05-08 14:46 19.36606 -99.09179 14350 ft 316 kts 261°
2026-05-08 14:46 19.36268 -99.11506 14729 ft 322 kts 261°
2026-05-08 14:46 19.35943 -99.13861 15203 ft 325 kts 261°
2026-05-08 14:47 19.35618 -99.16232 15724 ft 326 kts 260°
2026-05-08 14:47 19.35285 -99.18611 16194 ft 327 kts 260°
2026-05-08 14:47 19.34942 -99.21001 16677 ft 329 kts 259°
2026-05-08 14:47 19.34591 -99.23402 17172 ft 331 kts 259°
2026-05-08 14:48 19.34234 -99.25814 17687 ft 333 kts 258°
2026-05-08 14:48 19.33874 -99.28243 18172 ft 334 kts 258°
2026-05-08 14:48 19.33514 -99.30683 18628 ft 337 kts 258°
2026-05-08 14:48 19.33152 -99.33135 19039 ft 338 kts 258°
2026-05-08 14:49 19.32788 -99.35599 19442 ft 339 kts 258°
2026-05-08 14:49 19.32422 -99.38073 19987 ft 341 kts 258°
2026-05-08 14:49 19.32039 -99.40559 20356 ft 347 kts 257°
2026-05-08 14:49 19.31580 -99.43111 20493 ft 358 kts 256°
2026-05-08 14:50 19.31072 -99.45696 20635 ft 370 kts 255°
2026-05-08 14:50 19.30524 -99.48397 20775 ft 381 kts 255°
2026-05-08 14:50 19.29960 -99.51177 20893 ft 392 kts 255°
2026-05-08 14:50 19.29392 -99.54028 21164 ft 398 kts 256°
2026-05-08 14:51 19.28830 -99.56908 21545 ft 401 kts 256°
2026-05-08 14:51 19.28270 -99.59808 21948 ft 403 kts 256°
2026-05-08 14:51 19.27709 -99.62724 22356 ft 405 kts 256°
2026-05-08 14:51 19.27144 -99.65653 22736 ft 407 kts 256°
2026-05-08 14:52 19.26574 -99.68594 23101 ft 409 kts 256°
2026-05-08 14:52 19.25427 -99.74520 23778 ft 413 kts 256°
2026-05-08 14:52 19.24848 -99.77503 24063 ft 415 kts 256°
2026-05-08 14:53 19.24267 -99.80497 24202 ft 416 kts 256°
2026-05-08 14:53 19.23699 -99.83502 24450 ft 417 kts 256°
2026-05-08 14:53 19.23150 -99.86518 24740 ft 417 kts 257°
2026-05-08 14:53 19.22608 -99.89539 25022 ft 419 kts 257°
2026-05-08 14:54 19.22066 -99.92570 25288 ft 420 kts 257°
2026-05-08 14:54 19.21521 -99.95616 25594 ft 422 kts 257°
2026-05-08 14:54 19.20972 -99.98670 25883 ft 423 kts 257°
2026-05-08 14:54 19.20417 -100.01735 26185 ft 425 kts 257°
2026-05-08 14:55 19.19857 -100.04808 26463 ft 427 kts 257°
2026-05-08 14:55 19.19292 -100.07898 26746 ft 428 kts 257°
2026-05-08 14:55 19.18798 -100.11011 27025 ft 431 kts 263°
2026-05-08 14:55 19.18770 -100.14193 27258 ft 435 kts 273°
2026-05-08 14:56 19.19294 -100.17359 27532 ft 440 kts 283°
2026-05-08 14:56 19.20255 -100.20439 27793 ft 443 kts 287°
2026-05-08 14:56 19.21251 -100.23522 28095 ft 443 kts 287°
2026-05-08 14:56 19.22242 -100.26615 28395 ft 444 kts 286°
2026-05-08 14:57 19.23230 -100.29718 28633 ft 446 kts 286°
2026-05-08 14:57 19.24217 -100.32834 28916 ft 447 kts 286°
2026-05-08 14:57 19.25204 -100.35959 29178 ft 449 kts 286°
2026-05-08 14:57 19.26194 -100.39095 29429 ft 450 kts 286°
2026-05-08 14:58 19.27188 -100.42242 29685 ft 452 kts 286°
2026-05-08 14:58 19.28188 -100.45395 29900 ft 453 kts 286°
2026-05-08 14:58 19.29189 -100.48547 29980 ft 446 kts 286°
2026-05-08 14:58 19.30163 -100.51611 29986 ft 433 kts 286°
2026-05-08 14:59 19.31117 -100.54616 29985 ft 429 kts 286°
2026-05-08 14:59 19.33938 -100.63559 29969 ft 425 kts 286°
2026-05-08 15:00 19.35799 -100.69464 30000 ft 425 kts 286°
2026-05-08 15:00 19.37700 -100.75391 30001 ft 425 kts 287°
2026-05-08 15:01 19.39743 -100.81272 30002 ft 426 kts 288°
2026-05-08 15:01 19.41812 -100.87150 30007 ft 426 kts 288°
2026-05-08 15:02 19.43854 -100.93045 30010 ft 426 kts 288°
2026-05-08 15:02 19.45869 -100.98944 30011 ft 426 kts 287°
2026-05-08 15:03 19.47886 -101.04847 30044 ft 426 kts 287°
2026-05-08 15:03 19.49905 -101.10748 30043 ft 426 kts 287°
2026-05-08 15:04 19.51930 -101.16652 30044 ft 426 kts 287°
2026-05-08 15:04 19.53944 -101.22560 30044 ft 426 kts 287°
2026-05-08 15:05 19.55962 -101.28465 30044 ft 426 kts 287°
2026-05-08 15:05 19.57986 -101.34366 30071 ft 426 kts 287°
2026-05-08 15:06 19.60001 -101.40270 30073 ft 426 kts 287°
2026-05-08 15:06 19.62003 -101.46172 30077 ft 425 kts 287°
2026-05-08 15:07 19.64003 -101.52068 30075 ft 425 kts 287°
2026-05-08 15:07 19.66004 -101.57967 30074 ft 425 kts 287°
2026-05-08 15:08 19.67659 -101.62865 30073 ft 425 kts 287°
2026-05-08 15:08 19.68973 -101.66727 29752 ft 414 kts 287°
2026-05-08 15:08 19.69939 -101.69567 29488 ft 405 kts 287°
2026-05-08 15:09 19.70882 -101.72350 29226 ft 399 kts 287°
2026-05-08 15:09 19.71814 -101.75110 28964 ft 396 kts 287°
2026-05-08 15:09 19.72737 -101.77855 28709 ft 394 kts 287°
2026-05-08 15:09 19.73658 -101.80593 28454 ft 393 kts 287°
2026-05-08 15:10 19.74576 -101.83316 28207 ft 391 kts 287°
2026-05-08 15:10 19.75493 -101.86030 27961 ft 390 kts 287°
2026-05-08 15:10 19.76406 -101.88733 27714 ft 389 kts 287°
2026-05-08 15:10 19.77316 -101.91429 27472 ft 387 kts 287°
2026-05-08 15:11 19.78221 -101.94117 27218 ft 386 kts 287°
2026-05-08 15:11 19.79124 -101.96800 26978 ft 385 kts 287°
2026-05-08 15:11 19.80020 -101.99461 26738 ft 380 kts 287°
2026-05-08 15:11 19.80905 -102.02090 26379 ft 376 kts 287°
2026-05-08 15:12 19.81780 -102.04698 25995 ft 374 kts 286°
2026-05-08 15:12 19.82650 -102.07291 25597 ft 372 kts 287°
2026-05-08 15:12 19.83519 -102.09872 25205 ft 370 kts 287°
2026-05-08 15:12 19.84382 -102.12436 24812 ft 368 kts 287°
2026-05-08 15:13 19.85241 -102.14991 24409 ft 366 kts 287°
2026-05-08 15:13 19.86082 -102.17501 24016 ft 365 kts 287°
2026-05-08 15:13 19.86930 -102.20036 23602 ft 364 kts 287°
2026-05-08 15:13 19.87775 -102.22563 23136 ft 362 kts 287°
2026-05-08 15:14 19.88611 -102.25069 22723 ft 358 kts 287°
2026-05-08 15:14 19.89438 -102.27550 22304 ft 355 kts 287°
2026-05-08 15:14 19.90259 -102.30013 21889 ft 352 kts 287°
2026-05-08 15:14 19.91080 -102.32474 21436 ft 356 kts 287°
2026-05-08 15:15 19.91912 -102.34958 20985 ft 356 kts 287°
2026-05-08 15:15 19.92741 -102.37433 20535 ft 355 kts 287°
2026-05-08 15:15 19.93568 -102.39905 20098 ft 354 kts 287°
2026-05-08 15:15 19.94390 -102.42369 19660 ft 353 kts 287°
2026-05-08 15:16 19.95209 -102.44827 19218 ft 353 kts 287°
2026-05-08 15:16 19.96025 -102.47284 18771 ft 352 kts 287°
2026-05-08 15:16 19.96845 -102.49762 18099 ft 357 kts 287°
2026-05-08 15:16 19.97659 -102.52212 17610 ft 348 kts 287°
2026-05-08 15:17 19.98461 -102.54622 17185 ft 345 kts 287°
2026-05-08 15:17 19.99260 -102.57025 16756 ft 344 kts 287°
2026-05-08 15:17 20.00231 -102.59340 16303 ft 344 kts 300°
2026-05-08 15:17 20.01750 -102.61292 16040 ft 343 kts 313°
2026-05-08 15:18 20.03438 -102.63085 15800 ft 343 kts 313°
2026-05-08 15:18 20.05121 -102.64879 15563 ft 342 kts 313°
2026-05-08 15:18 20.06799 -102.66666 15326 ft 341 kts 313°
2026-05-08 15:18 20.08475 -102.68445 15095 ft 339 kts 313°
2026-05-08 15:19 20.10134 -102.70202 14772 ft 335 kts 313°
2026-05-08 15:19 20.11785 -102.71951 14389 ft 334 kts 313°
2026-05-08 15:19 20.13430 -102.73694 13977 ft 334 kts 313°
2026-05-08 15:19 20.15076 -102.75438 13553 ft 334 kts 313°
2026-05-08 15:20 20.16718 -102.77178 13173 ft 332 kts 313°
2026-05-08 15:20 20.18325 -102.78878 13073 ft 319 kts 313°
2026-05-08 15:20 20.19871 -102.80510 13003 ft 307 kts 313°
2026-05-08 15:20 20.21368 -102.82092 12937 ft 304 kts 313°
2026-05-08 15:21 20.22877 -102.83690 12858 ft 306 kts 313°
2026-05-08 15:21 20.24384 -102.85292 12578 ft 306 kts 313°
2026-05-08 15:21 20.25885 -102.86890 12225 ft 305 kts 313°
2026-05-08 15:21 20.27383 -102.88480 11861 ft 304 kts 313°
2026-05-08 15:22 20.28877 -102.90065 11497 ft 303 kts 314°
2026-05-08 15:22 20.30368 -102.91649 11138 ft 302 kts 314°
2026-05-08 15:22 20.31853 -102.93230 10771 ft 302 kts 314°
2026-05-08 15:22 20.33337 -102.94812 10414 ft 301 kts 314°
2026-05-08 15:23 20.34806 -102.96378 10051 ft 296 kts 314°
2026-05-08 15:23 20.36255 -102.97920 9675 ft 292 kts 314°
2026-05-08 15:23 20.37679 -102.99436 9303 ft 286 kts 314°
2026-05-08 15:23 20.39040 -103.00889 8972 ft 274 kts 312°
2026-05-08 15:24 20.40121 -103.02479 8790 ft 256 kts 297°
2026-05-08 15:24 20.40868 -103.04186 8802 ft 250 kts 292°
2026-05-08 15:24 20.41557 -103.05875 8785 ft 247 kts 293°
2026-05-08 15:24 20.42246 -103.07523 8728 ft 235 kts 293°
2026-05-08 15:25 20.42880 -103.09022 8484 ft 217 kts 293°
2026-05-08 15:25 20.43479 -103.10441 8234 ft 204 kts 293°
2026-05-08 15:25 20.44045 -103.11782 8010 ft 194 kts 293°
2026-05-08 15:25 20.44588 -103.13069 7919 ft 187 kts 293°
2026-05-08 15:26 20.45113 -103.14314 7719 ft 182 kts 294°
2026-05-08 15:26 20.45629 -103.15538 7525 ft 180 kts 294°
2026-05-08 15:26 20.46141 -103.16755 7328 ft 179 kts 294°
2026-05-08 15:26 20.46652 -103.17967 7132 ft 179 kts 294°
2026-05-08 15:27 20.47161 -103.19174 6962 ft 178 kts 294°
2026-05-08 15:27 20.47651 -103.20338 6761 ft 168 kts 294°
2026-05-08 15:27 20.48124 -103.21463 6576 ft 165 kts 294°
2026-05-08 15:27 20.48593 -103.22575 6385 ft 164 kts 294°
2026-05-08 15:28 20.49058 -103.23680 6203 ft 163 kts 294°
2026-05-08 15:28 20.49521 -103.24781 6035 ft 163 kts 294°
2026-05-08 15:28 20.49984 -103.25880 5823 ft 162 kts 294°
2026-05-08 15:28 20.50445 -103.26977 5593 ft 162 kts 294°
2026-05-08 15:29 20.50903 -103.28068 5342 ft 161 kts 294°
2026-05-08 15:29 20.51358 -103.29156 5109 ft 161 kts 294°
2026-05-08 15:29 20.51811 -103.30220 5029 ft 148 kts 295°
2026-05-08 15:29 20.52159 -103.31055 5032 ft 73 kts 294°
2026-05-08 15:30 20.52273 -103.31324 5031 ft 21 kts 295°
2026-05-08 15:30 20.52354 -103.31456 5031 ft 22 kts 310°
2026-05-08 15:30 20.52422 -103.31524 5030 ft 1 kts 322°
2026-05-08 15:30 20.52437 -103.31535 5030 ft 4 kts 324°
2026-05-08 15:31 20.52471 -103.31561 5029 ft 8 kts 324°
2026-05-08 15:31 20.52526 -103.31590 5029 ft 10 kts 349°
2026-05-08 15:31 20.52599 -103.31574 5029 ft 12 kts 21°
2026-05-08 15:31 20.52683 -103.31534 5028 ft 14 kts 28°
2026-05-08 15:32 20.52755 -103.31476 5029 ft 13 kts 68°
2026-05-08 15:32 20.52735 -103.31382 5027 ft 14 kts 116°
2026-05-08 15:32 20.52692 -103.31280 5026 ft 16 kts 114°
2026-05-08 15:32 20.52645 -103.31167 5028 ft 17 kts 114°
2026-05-08 15:33 20.52595 -103.31045 5026 ft 19 kts 114°
2026-05-08 15:33 20.52540 -103.30914 5029 ft 20 kts 114°
2026-05-08 15:33 20.52493 -103.30801 5027 ft 15 kts 106°
2026-05-08 15:33 20.52500 -103.30730 5027 ft 13 kts 72°
2026-05-08 15:34 20.52532 -103.30634 5027 ft 15 kts 72°
2026-05-08 15:34 20.52543 -103.30555 5029 ft 9 kts 72°
2026-05-08 15:34 20.52558 -103.30521 5029 ft 0 kts 65°